Regional Weather Roundup
Issued by NWS

Current Version | Previous Version | Text Only | Print | Product List | Glossary On
Versions: 1 2 3 4 5 6 7 8 9 10 11 12 13 14 15 16 17 18 19 20 21 22 23 24 25 26 27 28 29 30 31 32 33 34 35 36 37 38 39 40 41 42 43 44 45 46 47 48 49 50
000
ASUS45 KABQ 251310
RWRNM
NEW MEXICO REGIONAL WEATHER ROUNDUP
NATIONAL WEATHER SERVICE ALBUQUERQUE NM
700 AM MDT FRI JUN 25 2021

NOTE: "FAIR" MEANS FEW OR NO CLOUDS BELOW 12,000 FEET AGL WITH NO
       SIGNIFICANT WEATHER OR OBSTRUCTIONS TO VISION.

      THIS PRODUCT IS RELEASED AS TWO VERSIONS.  ONE VERSION NEAR
      THE TOP OF THE HOUR CONTAINING PRELIMINARY DATA FROM ALBUQUERQUE
      AND OTHER STATIONS.  A FINAL VERSION WITH ADDITIONAL DATA IS
      ISSUED ABOUT 10 MINUTES AFTER THE HOUR.

NMZ201-203-204-210>218-251400-
NORTHWEST PLATEAU/NORTHCENTRAL MOUNTAINS

CITY           SKY/WX    TMP DP  RH WIND       PRES   REMARKS
FARMINGTON     LGT RAIN  64  43  46 SW3       30.09R
LOS ALAMOS     FAIR      61  45  55 CALM      30.20R
SANTA FE       FAIR      59  47  64 N7        30.14R
TAOS           FAIR      53  43  68 NW6       30.21R
ANGEL FIRE     FAIR      40  38  92 CALM      30.30R

$$
NMZ202-205>209-241-402-403-251400-
WESTCENTRAL MOUNTAINS/SOUTHWEST MOUNTAINS

CITY           SKY/WX    TMP DP  RH WIND       PRES   REMARKS
GALLUP         FAIR      61  41  47 S8        30.18R
GRANTS         FAIR      56  40  55 CALM      30.20R
SILVER CITY    FAIR      69  45  41 N9        30.12R

$$
NMZ407-409-411-412-251400-
SOUTHERN DESERTS

CITY           SKY/WX    TMP DP  RH WIND       PRES   REMARKS
DEMING         FAIR      73  45  36 W3        30.03R
LAS CRUCES     FAIR      75  55  49 NW6       30.03S
ALAMOGORDO     FAIR      73  52  46 CALM      30.00R
T OR C         PTSUNNY   73  43  33 NW10      30.05R

$$
NMZ219>223-251400-
CENTRAL VALLEYS/CENTRAL HIGHLANDS

CITY           SKY/WX    TMP DP  RH WIND       PRES   REMARKS
ALBUQUERQUE    FAIR      65  51  60 SE8       30.10R
DOUBLE EAGLE   MOSUNNY   57  50  77 CALM      30.12R
MORIARTY ARPT  FAIR      56  40  54 CALM      30.15R
CLINES CORNERS FAIR      61  48  62 NW6       30.19R
BELEN          FAIR      60  56  85 CALM      30.09S
SOCORRO        FAIR      68  47  48 CALM      30.06S

$$
NMZ224>226-239-240-251400-
SOUTHCENTRAL MOUNTAINS

CITY           SKY/WX    TMP DP  RH WIND       PRES   REMARKS
RUIDOSO        FAIR      66  43  42 W7        30.20S

$$
NMZ227>231-251400-
NORTHEAST HIGHLANDS/NORTHEAST PLAINS

CITY           SKY/WX    TMP DP  RH WIND       PRES   REMARKS
LAS VEGAS      FAIR      57  46  66 N5        30.17R
RATON          FAIR      56  50  80 NE5       30.11S
CLAYTON        FAIR      66  53  63 W9        30.01F

$$
NMZ232>237-251400-
EASTCENTRAL PLAINS

CITY           SKY/WX    TMP DP  RH WIND       PRES   REMARKS
SANTA ROSA     FAIR      65  55  70 N5        30.02S
CANNON AFB     NOT AVBL
CLOVIS AIRPORT FAIR      74  59  59 N5        30.01R

$$
NMZ028-029-033-238-251400-
SOUTHEAST PLAINS

CITY           SKY/WX    TMP DP  RH WIND       PRES   REMARKS
ROSWELL        FAIR      75  65  70 S8        29.93S
ARTESIA          N/A     73  70  88 S5        29.95S
CARLSBAD       FAIR      77  66  68 S6        29.91S
HOBBS          MOSUNNY   75  64  69 SE13      29.96S


$$



USA.gov is the U.S. government's official web portal to all federal, state and local government web resources and services.